GLD1793 SBFZ-SBJP

Flight info

Callsign GLD1793
Flight time 0h 50m
Altitude 33000
Route UTMA1A UTMAR UZ70 UGTUN DCT JP362 DCT
Aircraft B738/M-SDFGIRY/S

Departure

Time 2026-04-25 19:58
Airport Pinto Martins International Airport (SBFZ)

Arrival

Time 2026-04-25 20:48
Airport Presidente Castro Pinto International Airport (SBJP)
Time Latitude Longitude Altitude Speed Heading
2026-04-25 19:39 -3.77811 -38.53484 80 ft 0 kts 194°
2026-04-25 19:49 -3.77801 -38.53482 80 ft 2 kts 193°
2026-04-25 19:50 -3.77770 -38.53472 85 ft 2 kts 201°
2026-04-25 19:50 -3.77755 -38.53466 84 ft 2 kts 208°
2026-04-25 19:50 -3.77741 -38.53457 85 ft 2 kts 230°
2026-04-25 19:51 -3.77735 -38.53442 83 ft 2 kts 275°
2026-04-25 19:51 -3.77736 -38.53434 84 ft 0 kts 284°
2026-04-25 19:51 -3.77736 -38.53433 84 ft 0 kts 284°
2026-04-25 19:53 -3.77733 -38.53446 85 ft 3 kts 284°
2026-04-25 19:53 -3.77727 -38.53469 85 ft 4 kts 284°
2026-04-25 19:53 -3.77719 -38.53500 80 ft 5 kts 284°
2026-04-25 19:53 -3.77712 -38.53531 80 ft 5 kts 284°
2026-04-25 19:54 -3.77704 -38.53561 82 ft 4 kts 284°
2026-04-25 19:54 -3.77697 -38.53591 81 ft 5 kts 284°
2026-04-25 19:54 -3.77688 -38.53622 82 ft 5 kts 285°
2026-04-25 19:54 -3.77682 -38.53643 81 ft 5 kts 285°
2026-04-25 19:55 -3.77666 -38.53702 87 ft 10 kts 285°
2026-04-25 19:55 -3.77646 -38.53780 84 ft 12 kts 284°
2026-04-25 19:55 -3.77624 -38.53862 85 ft 12 kts 285°
2026-04-25 19:55 -3.77600 -38.53944 85 ft 13 kts 287°
2026-04-25 19:56 -3.77575 -38.54031 87 ft 13 kts 284°
2026-04-25 19:56 -3.77554 -38.54117 86 ft 13 kts 284°
2026-04-25 19:56 -3.77528 -38.54206 86 ft 14 kts 285°
2026-04-25 19:56 -3.77502 -38.54298 89 ft 13 kts 285°
2026-04-25 19:57 -3.77458 -38.54371 87 ft 13 kts 339°
2026-04-25 19:57 -3.77372 -38.54354 90 ft 13 kts 36°
2026-04-25 19:57 -3.77364 -38.54254 89 ft 34 kts 104°
2026-04-25 19:57 -3.77505 -38.53725 83 ft 120 kts 105°
2026-04-25 19:58 -3.77781 -38.52680 164 ft 184 kts 105°
2026-04-25 19:58 -3.78154 -38.51372 903 ft 199 kts 105°
2026-04-25 19:58 -3.78550 -38.50105 2342 ft 176 kts 106°
2026-04-25 19:58 -3.78990 -38.49005 3462 ft 173 kts 123°
2026-04-25 19:59 -3.79863 -38.48017 3604 ft 209 kts 144°
2026-04-25 19:59 -3.81236 -38.47370 3965 ft 222 kts 163°
2026-04-25 19:59 -3.82746 -38.46940 4520 ft 233 kts 161°
2026-04-25 19:59 -3.84337 -38.46383 4907 ft 254 kts 159°
2026-04-25 20:00 -3.86006 -38.45720 5454 ft 266 kts 157°
2026-04-25 20:00 -3.87163 -38.45225 5765 ft 268 kts 156°
2026-04-25 20:00 -3.89422 -38.44194 5922 ft 272 kts 155°
2026-04-25 20:00 -3.91119 -38.43387 5943 ft 268 kts 154°
2026-04-25 20:01 -3.94440 -38.41797 5924 ft 267 kts 157°
2026-04-25 20:01 -3.96256 -38.41300 6365 ft 275 kts 169°
2026-04-25 20:01 -3.98165 -38.40956 7248 ft 275 kts 169°
2026-04-25 20:02 -4.00038 -38.40620 8062 ft 279 kts 169°
2026-04-25 20:02 -4.01961 -38.40266 8859 ft 282 kts 169°
2026-04-25 20:02 -4.03908 -38.39901 9602 ft 287 kts 168°
2026-04-25 20:02 -4.05890 -38.39522 10265 ft 295 kts 168°
2026-04-25 20:03 -4.07980 -38.39118 10486 ft 318 kts 168°
2026-04-25 20:03 -4.10231 -38.38678 10653 ft 341 kts 168°
2026-04-25 20:03 -4.12632 -38.38206 10811 ft 361 kts 168°
2026-04-25 20:03 -4.15150 -38.37710 11100 ft 375 kts 168°
2026-04-25 20:04 -4.17725 -38.37202 11682 ft 378 kts 168°
2026-04-25 20:04 -4.20312 -38.36692 12270 ft 381 kts 168°
2026-04-25 20:04 -4.22930 -38.36174 12858 ft 384 kts 168°
2026-04-25 20:04 -4.25562 -38.35654 13436 ft 387 kts 168°
2026-04-25 20:05 -4.28211 -38.35129 13965 ft 390 kts 168°
2026-04-25 20:05 -4.30896 -38.34598 14448 ft 394 kts 168°
2026-04-25 20:05 -4.33561 -38.34070 14900 ft 397 kts 168°
2026-04-25 20:05 -4.36281 -38.33531 15357 ft 401 kts 168°
2026-04-25 20:06 -4.39032 -38.32986 15818 ft 404 kts 168°
2026-04-25 20:06 -4.41800 -38.32438 16255 ft 407 kts 168°
2026-04-25 20:06 -4.44603 -38.31883 16667 ft 411 kts 168°
2026-04-25 20:06 -4.47423 -38.31325 17080 ft 415 kts 168°
2026-04-25 20:07 -4.50255 -38.30731 17495 ft 417 kts 164°
2026-04-25 20:07 -4.52982 -38.29731 17924 ft 418 kts 153°
2026-04-25 20:07 -4.55512 -38.28289 18311 ft 420 kts 144°
2026-04-25 20:07 -4.57819 -38.26475 18652 ft 422 kts 140°
2026-04-25 20:08 -4.60084 -38.24590 19003 ft 424 kts 139°
2026-04-25 20:08 -4.62349 -38.22690 19349 ft 426 kts 139°
2026-04-25 20:08 -4.64630 -38.20781 19695 ft 428 kts 139°
2026-04-25 20:08 -4.66927 -38.18868 20044 ft 429 kts 140°
2026-04-25 20:09 -4.69206 -38.16980 20372 ft 431 kts 140°
2026-04-25 20:09 -4.71530 -38.15062 20705 ft 433 kts 140°
2026-04-25 20:09 -4.73862 -38.13141 21011 ft 435 kts 140°
2026-04-25 20:09 -4.76210 -38.11210 21320 ft 437 kts 140°
2026-04-25 20:10 -4.77770 -38.09927 21508 ft 438 kts 140°
2026-04-25 20:10 -4.80938 -38.07323 21914 ft 441 kts 140°
2026-04-25 20:10 -4.83319 -38.05366 22191 ft 443 kts 140°
2026-04-25 20:10 -4.85709 -38.03400 22480 ft 445 kts 140°
2026-04-25 20:11 -4.88108 -38.01427 22758 ft 446 kts 140°
2026-04-25 20:11 -4.90517 -37.99446 23019 ft 448 kts 140°
2026-04-25 20:11 -4.92926 -37.97463 23272 ft 450 kts 140°
2026-04-25 20:11 -4.95354 -37.95465 23514 ft 452 kts 140°
2026-04-25 20:12 -4.97789 -37.93461 23732 ft 453 kts 140°
2026-04-25 20:12 -5.00222 -37.91459 23948 ft 454 kts 140°
2026-04-25 20:12 -5.02638 -37.89470 24148 ft 455 kts 140°
2026-04-25 20:12 -5.03464 -37.88790 24215 ft 456 kts 140°
2026-04-25 20:13 -5.07555 -37.85423 24546 ft 458 kts 140°
2026-04-25 20:13 -5.10009 -37.83403 24747 ft 459 kts 140°
2026-04-25 20:13 -5.12495 -37.81355 24937 ft 461 kts 140°
2026-04-25 20:13 -5.14981 -37.79309 25103 ft 463 kts 140°
2026-04-25 20:14 -5.17474 -37.77255 25290 ft 464 kts 140°
2026-04-25 20:14 -5.19974 -37.75196 25492 ft 465 kts 140°
2026-04-25 20:14 -5.22485 -37.73127 25691 ft 466 kts 140°
2026-04-25 20:14 -5.24992 -37.71062 25879 ft 467 kts 140°
2026-04-25 20:15 -5.27518 -37.68981 26044 ft 469 kts 140°
2026-04-25 20:15 -5.30022 -37.66917 26210 ft 470 kts 140°
2026-04-25 20:15 -5.32549 -37.64835 26389 ft 471 kts 140°
2026-04-25 20:15 -5.35090 -37.62740 26572 ft 472 kts 140°
2026-04-25 20:16 -5.37628 -37.60648 26745 ft 473 kts 140°
2026-04-25 20:16 -5.40173 -37.58550 26914 ft 474 kts 140°
2026-04-25 20:16 -5.42727 -37.56444 27077 ft 475 kts 141°
2026-04-25 20:16 -5.45286 -37.54334 27246 ft 476 kts 140°
2026-04-25 20:17 -5.47847 -37.52222 27430 ft 476 kts 140°
2026-04-25 20:17 -5.50385 -37.50128 27591 ft 477 kts 140°
2026-04-25 20:17 -5.52954 -37.48009 27735 ft 478 kts 141°
2026-04-25 20:17 -5.55527 -37.45886 27866 ft 479 kts 141°
2026-04-25 20:18 -5.58105 -37.43759 28037 ft 480 kts 141°
2026-04-25 20:18 -5.60681 -37.41634 28284 ft 478 kts 141°
2026-04-25 20:18 -5.63248 -37.39514 28558 ft 476 kts 141°
2026-04-25 20:18 -5.65801 -37.37407 28819 ft 475 kts 141°
2026-04-25 20:19 -5.68350 -37.35302 29053 ft 475 kts 141°
2026-04-25 20:19 -5.70906 -37.33191 29280 ft 474 kts 141°
2026-04-25 20:19 -5.73456 -37.31086 29552 ft 473 kts 141°
2026-04-25 20:19 -5.75966 -37.29013 29819 ft 472 kts 141°
2026-04-25 20:20 -5.78505 -37.26918 30016 ft 473 kts 141°
2026-04-25 20:20 -5.81044 -37.24822 30175 ft 474 kts 141°
2026-04-25 20:20 -5.83589 -37.22722 30380 ft 473 kts 141°
2026-04-25 20:20 -5.86135 -37.20621 30624 ft 472 kts 140°
2026-04-25 20:21 -5.88677 -37.18521 30859 ft 471 kts 140°
2026-04-25 20:21 -5.91207 -37.16431 31038 ft 472 kts 140°
2026-04-25 20:21 -5.93746 -37.14334 31226 ft 472 kts 140°
2026-04-25 20:21 -5.96283 -37.12238 31457 ft 472 kts 140°
2026-04-25 20:22 -5.98813 -37.10147 31734 ft 470 kts 140°
2026-04-25 20:22 -5.99633 -37.09470 31828 ft 470 kts 140°
2026-04-25 20:22 -6.03850 -37.05985 32347 ft 467 kts 140°
2026-04-25 20:22 -6.06353 -37.03916 32659 ft 465 kts 140°
2026-04-25 20:23 -6.08819 -37.01877 32900 ft 464 kts 139°
2026-04-25 20:23 -6.11356 -36.99780 32892 ft 468 kts 139°
2026-04-25 20:23 -6.16342 -36.95655 32904 ft 465 kts 139°
2026-04-25 20:24 -6.21306 -36.91550 32910 ft 460 kts 139°
2026-04-25 20:24 -6.24972 -36.87731 32922 ft 454 kts 124°
2026-04-25 20:25 -6.28326 -36.81108 32932 ft 460 kts 111°
2026-04-25 20:25 -6.30314 -36.76112 32925 ft 465 kts 111°
2026-04-25 20:26 -6.32738 -36.70049 32931 ft 468 kts 111°
2026-04-25 20:26 -6.35195 -36.63986 32928 ft 466 kts 111°
2026-04-25 20:27 -6.37650 -36.57961 32933 ft 466 kts 111°
2026-04-25 20:27 -6.38880 -36.54944 32720 ft 469 kts 111°
2026-04-25 20:27 -6.40126 -36.51885 32037 ft 471 kts 111°
2026-04-25 20:28 -6.41363 -36.48850 31309 ft 470 kts 112°
2026-04-25 20:28 -6.42587 -36.45845 30553 ft 471 kts 112°
2026-04-25 20:28 -6.43830 -36.42793 29671 ft 473 kts 112°
2026-04-25 20:28 -6.45083 -36.39717 28724 ft 474 kts 112°
2026-04-25 20:29 -6.46334 -36.36645 27791 ft 475 kts 112°
2026-04-25 20:29 -6.47584 -36.33573 26848 ft 475 kts 112°
2026-04-25 20:29 -6.48838 -36.30493 25904 ft 477 kts 112°
2026-04-25 20:29 -6.50086 -36.27423 25210 ft 471 kts 112°
2026-04-25 20:30 -6.51323 -36.24382 24511 ft 467 kts 112°
2026-04-25 20:30 -6.52551 -36.21362 23818 ft 463 kts 112°
2026-04-25 20:30 -6.53759 -36.18390 23037 ft 453 kts 112°
2026-04-25 20:30 -6.54936 -36.15494 22323 ft 445 kts 112°
2026-04-25 20:31 -6.56104 -36.12620 21653 ft 440 kts 112°
2026-04-25 20:31 -6.57240 -36.09822 21005 ft 436 kts 112°
2026-04-25 20:31 -6.58384 -36.07005 20345 ft 432 kts 112°
2026-04-25 20:31 -6.59519 -36.04211 19687 ft 429 kts 112°
2026-04-25 20:32 -6.60646 -36.01436 19027 ft 426 kts 112°
2026-04-25 20:32 -6.61762 -35.98687 18370 ft 424 kts 112°
2026-04-25 20:32 -6.62874 -35.95947 17623 ft 422 kts 112°
2026-04-25 20:32 -6.63977 -35.93229 16970 ft 418 kts 112°
2026-04-25 20:33 -6.65071 -35.90533 16303 ft 414 kts 112°
2026-04-25 20:33 -6.66144 -35.87887 15692 ft 410 kts 112°
2026-04-25 20:33 -6.67216 -35.85243 15062 ft 407 kts 112°
2026-04-25 20:33 -6.67938 -35.83461 14618 ft 405 kts 112°
2026-04-25 20:34 -6.69340 -35.80005 13776 ft 402 kts 112°
2026-04-25 20:34 -6.70389 -35.77417 13077 ft 394 kts 112°
2026-04-25 20:34 -6.71422 -35.74868 12447 ft 391 kts 113°
2026-04-25 20:34 -6.72445 -35.72342 11830 ft 387 kts 113°
2026-04-25 20:35 -6.73447 -35.69870 11229 ft 384 kts 113°
2026-04-25 20:35 -6.74452 -35.67389 11027 ft 370 kts 113°
2026-04-25 20:35 -6.75392 -35.65065 10830 ft 355 kts 113°
2026-04-25 20:35 -6.76305 -35.62810 10684 ft 342 kts 113°
2026-04-25 20:36 -6.77188 -35.60628 10540 ft 331 kts 113°
2026-04-25 20:36 -6.78042 -35.58518 10404 ft 320 kts 113°
2026-04-25 20:36 -6.78869 -35.56476 10268 ft 310 kts 113°
2026-04-25 20:36 -6.79671 -35.54495 10142 ft 301 kts 114°
2026-04-25 20:37 -6.80448 -35.52573 10018 ft 292 kts 114°
2026-04-25 20:37 -6.81208 -35.50697 9806 ft 288 kts 114°
2026-04-25 20:37 -6.81961 -35.48837 9503 ft 286 kts 114°
2026-04-25 20:37 -6.82709 -35.46989 9190 ft 285 kts 114°
2026-04-25 20:38 -6.83454 -35.45149 8881 ft 283 kts 114°
2026-04-25 20:38 -6.84195 -35.43318 8573 ft 282 kts 114°
2026-04-25 20:38 -6.84934 -35.41490 8273 ft 281 kts 114°
2026-04-25 20:38 -6.85670 -35.39671 7974 ft 280 kts 114°
2026-04-25 20:39 -6.86403 -35.37858 7684 ft 279 kts 114°
2026-04-25 20:39 -6.87134 -35.36050 7377 ft 278 kts 114°
2026-04-25 20:39 -6.87860 -35.34255 7078 ft 277 kts 113°
2026-04-25 20:39 -6.88341 -35.33064 6880 ft 276 kts 114°
2026-04-25 20:40 -6.89308 -35.30671 6483 ft 275 kts 114°
2026-04-25 20:40 -6.90029 -35.28886 6172 ft 275 kts 114°
2026-04-25 20:40 -6.90746 -35.27111 5865 ft 274 kts 114°
2026-04-25 20:40 -6.91459 -35.25345 5558 ft 271 kts 114°
2026-04-25 20:41 -6.92149 -35.23635 5269 ft 263 kts 114°
2026-04-25 20:41 -6.92826 -35.21958 4989 ft 255 kts 114°
2026-04-25 20:41 -6.93484 -35.20327 4725 ft 248 kts 114°
2026-04-25 20:41 -6.94126 -35.18738 4458 ft 241 kts 114°
2026-04-25 20:42 -6.94746 -35.17202 4298 ft 230 kts 114°
2026-04-25 20:42 -6.95328 -35.15757 4184 ft 217 kts 114°
2026-04-25 20:42 -6.95881 -35.14385 4094 ft 208 kts 115°
2026-04-25 20:42 -6.96614 -35.13111 4051 ft 217 kts 136°
2026-04-25 20:43 -6.97696 -35.12089 4001 ft 209 kts 137°
2026-04-25 20:43 -6.98715 -35.11093 3866 ft 199 kts 136°
2026-04-25 20:43 -6.99678 -35.10142 3770 ft 189 kts 136°
2026-04-25 20:43 -7.00610 -35.09220 3653 ft 189 kts 136°
2026-04-25 20:44 -7.01541 -35.08297 3449 ft 184 kts 136°
2026-04-25 20:44 -7.02433 -35.07412 3248 ft 176 kts 136°
2026-04-25 20:44 -7.03287 -35.06563 3064 ft 171 kts 136°
2026-04-25 20:44 -7.04133 -35.05723 2869 ft 169 kts 136°
2026-04-25 20:45 -7.04957 -35.04904 2697 ft 164 kts 136°
2026-04-25 20:45 -7.05754 -35.04112 2498 ft 159 kts 136°
2026-04-25 20:45 -7.06532 -35.03340 2294 ft 155 kts 137°
2026-04-25 20:45 -7.07273 -35.02604 2114 ft 146 kts 137°
2026-04-25 20:46 -7.07982 -35.01898 2098 ft 142 kts 137°
2026-04-25 20:46 -7.08670 -35.01214 1998 ft 140 kts 137°
2026-04-25 20:46 -7.09386 -35.00541 1731 ft 141 kts 139°
2026-04-25 20:46 -7.10113 -34.99869 1421 ft 141 kts 136°
2026-04-25 20:47 -7.10793 -34.99157 1109 ft 141 kts 135°
2026-04-25 20:47 -7.11461 -34.98459 873 ft 135 kts 136°
2026-04-25 20:47 -7.12131 -34.97782 664 ft 142 kts 136°
2026-04-25 20:47 -7.12855 -34.97088 558 ft 147 kts 136°
2026-04-25 20:48 -7.13582 -34.96343 378 ft 149 kts 134°
2026-04-25 20:48 -7.14283 -34.95642 218 ft 136 kts 134°
2026-04-25 20:48 -7.14829 -34.95090 219 ft 80 kts 136°
2026-04-25 20:48 -7.15089 -34.94836 222 ft 36 kts 135°
2026-04-25 20:49 -7.15248 -34.94677 214 ft 30 kts 135°
2026-04-25 20:49 -7.15392 -34.94535 212 ft 28 kts 135°
2026-04-25 20:49 -7.15527 -34.94402 217 ft 26 kts 135°
2026-04-25 20:49 -7.15641 -34.94319 216 ft 16 kts 161°
2026-04-25 20:50 -7.15654 -34.94281 213 ft 6 kts 45°
2026-04-25 20:50 -7.15615 -34.94285 218 ft 6 kts 316°
2026-04-25 20:50 -7.15586 -34.94321 213 ft 8 kts 306°
2026-04-25 20:50 -7.15553 -34.94366 213 ft 8 kts 307°
2026-04-25 20:51 -7.15518 -34.94407 213 ft 8 kts 313°
2026-04-25 20:51 -7.15482 -34.94445 214 ft 7 kts 315°
2026-04-25 20:51 -7.15447 -34.94480 215 ft 7 kts 316°
2026-04-25 20:51 -7.15404 -34.94521 217 ft 9 kts 316°
2026-04-25 20:52 -7.15360 -34.94565 212 ft 9 kts 315°
2026-04-25 20:52 -7.15332 -34.94594 213 ft 9 kts 315°
2026-04-25 20:52 -7.15267 -34.94660 214 ft 11 kts 315°
2026-04-25 20:52 -7.15211 -34.94716 214 ft 13 kts 315°
2026-04-25 20:53 -7.15142 -34.94783 214 ft 14 kts 315°
2026-04-25 20:53 -7.15072 -34.94851 220 ft 14 kts 316°
2026-04-25 20:53 -7.15004 -34.94917 220 ft 13 kts 316°
2026-04-25 20:53 -7.14940 -34.94982 216 ft 13 kts 314°
2026-04-25 20:54 -7.14879 -34.95046 221 ft 13 kts 316°
2026-04-25 20:54 -7.14826 -34.95098 217 ft 0 kts 316°
2026-04-25 20:54 -7.14824 -34.95098 217 ft 1 kts 339°
2026-04-25 20:54 -7.14803 -34.95085 217 ft 6 kts 38°
2026-04-25 20:55 -7.14768 -34.95052 216 ft 7 kts 43°
2026-04-25 20:55 -7.14732 -34.95016 216 ft 7 kts 48°
2026-04-25 20:55 -7.14725 -34.94968 215 ft 8 kts 112°
2026-04-25 20:55 -7.14763 -34.94921 215 ft 9 kts 125°
2026-04-25 20:56 -7.14752 -34.94863 221 ft 6 kts 47°
2026-04-25 20:56 -7.14751 -34.94863 220 ft 1 kts 42°
2026-04-25 20:56 -7.14734 -34.94841 215 ft 5 kts 52°
2026-04-25 20:56 -7.14722 -34.94835 219 ft 1 kts 352°
2026-04-25 20:57 -7.14706 -34.94845 215 ft 4 kts 325°
2026-04-25 20:57 -7.14705 -34.94846 215 ft 0 kts 326°
2026-04-25 20:57 -7.14694 -34.94843 215 ft 3 kts 15°
2026-04-25 20:57 -7.14672 -34.94839 215 ft 0 kts 358°
2026-04-25 20:58 -7.14705 -34.94870 216 ft 0 kts 82°